Weather History for RJOO - September, 2013

Change the Weather History Date:

Monday, September 2, 2013

  Actual Average Record
Temperature  
Mean Temperature 76 °F -  
Max Temperature 78 °F 82 °F 96 °F (2010)
Min Temperature 75 °F 67 °F 68 °F (2004)
Cooling Degree Days 12    
Growing Degree Days 26 (Base 50)    
Moisture  
Dew Point 73 °F    
Average Humidity 90    
Maximum Humidity 94    
Minimum Humidity 83    
Precipitation  
Precipitation 0.00 in - - ()
Sea Level Pressure  
Sea Level Pressure 29.87 in    
Wind  
Wind Speed 5 mph ()    
Max Wind Speed 10 mph    
Max Gust Speed -    
Visibility 4.1 miles    
Events Rain    
Averages and records for this station are not official NWS values.
T = Trace of Precipitation, MM = Missing Value Source: Averaged Metar Reports

Daily Weather History Graph

Daily Weather History Graph

Search for Another Location

Airport or City:

Trip Planner

Search our weather history database for the weather conditions in past years. The results will help you decide how hot, cold, wet, or windy it might be!

Date:

Astronomy

Sep. 02, 2013 Rise Set
Actual Time 5:31 AM JST 6:23 PM JST
Civil Twilight 5:05 AM JST 6:49 PM JST
Nautical Twilight 4:35 AM JST 7:19 PM JST
Astronomical Twilight 4:03 AM JST 7:51 PM JST
Moon 2:18 AM JST (9/2) 4:10 PM JST (9/2)
Length of Visible Light 13h 43m
Length of Day
12h 52m
Waning Crescent, 11% of the Moon is Illuminated
Sep 2
Waning Crescent
Sep 5
New
Sep 13
First Quarter
Sep 19
Full
Sep 27
Last Quarter

Hourly Weather History & Observations

Time (JST) Temp. Dew Point Humidity Pressure Visibility Wind Dir Wind Speed Gust Speed Precip Events Conditions
5:00 AM 77.0 °F 71.6 °F 83% 29.83 in 6.2 mi East 3.5 mph - N/A Rain Light Rain Showers
6:00 AM 75.2 °F 73.4 °F 94% 29.86 in 4.3 mi ESE 5.8 mph - N/A Rain Rain Showers
6:20 AM 75.2 °F 73.4 °F 94% 29.86 in 5.0 mi ESE 3.5 mph - N/A Rain Light Rain Showers
6:36 AM 75.2 °F 73.4 °F 94% 29.86 in 3.7 mi East 4.6 mph - N/A Rain Rain Showers
6:42 AM 75.2 °F 73.4 °F 94% 29.86 in 2.5 mi East 4.6 mph - N/A Rain Rain Showers
6:44 AM 75.2 °F 73.4 °F 94% 29.86 in 1.9 mi East 4.6 mph - N/A Rain Heavy Rain Showers
6:47 AM 75.2 °F 73.4 °F 94% 29.86 in 1.9 mi East 4.6 mph - N/A Rain Heavy Rain Showers
7:00 AM 75.2 °F 73.4 °F 94% 29.86 in 3.7 mi East 5.8 mph - N/A Rain Rain Showers
7:02 AM 75.2 °F 73.4 °F 94% 29.86 in 3.7 mi East 5.8 mph - N/A Rain Rain Showers
7:05 AM 75.2 °F 73.4 °F 94% 29.86 in 3.7 mi East 5.8 mph - N/A Rain Rain Showers
7:08 AM 75.2 °F 73.4 °F 94% 29.86 in 3.7 mi East 6.9 mph - N/A Rain Light Rain Showers
8:00 AM 77.0 °F 73.4 °F 89% 29.89 in 3.7 mi East 6.9 mph - N/A Rain Light Rain Showers
8:08 AM 77.0 °F 73.4 °F 89% 29.89 in 3.7 mi ENE 5.8 mph - N/A Rain Light Rain Showers
8:20 AM 77.0 °F 73.4 °F 89% 29.89 in 5.0 mi ENE 6.9 mph - N/A Rain Rain Showers
8:24 AM 77.0 °F 73.4 °F 89% 29.89 in 1.9 mi East 6.9 mph - N/A Rain Heavy Rain Showers
8:26 AM 77.0 °F 73.4 °F 89% 29.89 in 2.2 mi East 6.9 mph - N/A Rain Heavy Rain Showers
8:28 AM 77.0 °F 73.4 °F 89% 29.89 in 2.2 mi East 6.9 mph - N/A Rain Heavy Rain Showers
8:33 AM 77.0 °F 73.4 °F 89% 29.89 in 5.0 mi East 8.1 mph - N/A Rain Rain Showers
8:34 AM 77.0 °F 73.4 °F 89% 29.89 in 5.0 mi East 8.1 mph - N/A Rain Rain Showers
8:38 AM 77.0 °F 73.4 °F 89% 29.89 in 6.2 mi East 6.9 mph - N/A Rain Light Rain Showers
8:48 AM 77.0 °F 73.4 °F 89% 29.89 in 2.5 mi East 5.8 mph - N/A Rain Rain Showers
9:00 AM 77.0 °F 73.4 °F 89% 29.89 in 4.3 mi East 5.8 mph - N/A Rain Rain Showers
9:22 AM 77.0 °F 73.4 °F 89% 29.89 in 6.2 mi Variable 2.3 mph - N/A Rain Light Rain Showers
10:00 AM 77.0 °F 73.4 °F 89% 29.89 in 6.2 mi NE 3.5 mph - N/A Rain Light Rain Showers
10:31 AM 78.8 °F 75.2 °F 89% 29.86 in 6.2 mi East 5.8 mph - N/A Rain Rain Showers
10:49 AM 77.0 °F 73.4 °F 89% 29.86 in 6.2 mi East 8.1 mph - N/A Rain Rain Showers
11:00 AM 77.0 °F 75.2 °F 94% 29.86 in 6.2 mi ESE 8.1 mph - N/A Rain Rain Showers
11:20 AM 78.8 °F 75.2 °F 89% 29.86 in 6.2 mi Variable 1.2 mph - N/A Rain Light Rain Showers
12:00 PM 78.8 °F 75.2 °F 89% 29.86 in 6.2 mi West 5.8 mph - N/A Rain Light Rain Showers
1:00 PM 78.8 °F 73.4 °F 83% 29.86 in 6.2 mi SW 10.4 mph - N/A Rain Light Rain Showers
1:07 PM 78.8 °F 73.4 °F 83% 29.86 in 5.0 mi SW 10.4 mph - N/A Rain Rain Showers
1:14 PM 78.8 °F 73.4 °F 83% 29.86 in 2.5 mi SW 8.1 mph - N/A Rain Heavy Rain Showers
1:16 PM 77.0 °F 73.4 °F 89% 29.86 in 0.9 mi SW 9.2 mph - N/A Rain Heavy Rain Showers
1:19 PM 77.0 °F 73.4 °F 89% 29.86 in 0.9 mi SW 9.2 mph - N/A Rain Heavy Rain Showers
1:23 PM 77.0 °F 73.4 °F 89% 29.86 in 1.2 mi SW 10.4 mph - N/A Rain Heavy Rain Showers
1:28 PM 75.2 °F 71.6 °F 89% 29.86 in 1.1 mi SW 10.4 mph - N/A Rain Heavy Rain Showers
1:35 PM 75.2 °F 73.4 °F 94% 29.86 in 1.9 mi SSW 9.2 mph - N/A Rain Heavy Rain Showers
1:40 PM 75.2 °F 73.4 °F 94% 29.86 in 0.9 mi SSW 8.1 mph - N/A Rain Heavy Rain Showers
2:00 PM 75.2 °F 73.4 °F 94% 29.86 in 1.6 mi SW 8.1 mph - N/A Rain Heavy Rain Showers
2:06 PM 75.2 °F 73.4 °F 94% 29.86 in 2.5 mi SW 5.8 mph - N/A Rain Rain Showers
2:15 PM 75.2 °F 73.4 °F 94% 29.86 in 2.2 mi SW 4.6 mph - N/A Rain Rain Showers
2:20 PM 77.0 °F 73.4 °F 89% 29.86 in 3.7 mi WSW 3.5 mph - N/A Rain Rain Showers
2:26 PM 77.0 °F 73.4 °F 89% 29.86 in 5.6 mi West 3.5 mph - N/A Rain Rain Showers
2:32 PM 77.0 °F 73.4 °F 89% 29.86 in 6.2 mi West 3.5 mph - N/A Rain Light Rain Showers
3:00 PM 77.0 °F 73.4 °F 89% 29.86 in 6.2 mi SW 3.5 mph - N/A Rain Light Rain Showers
4:00 PM 77.0 °F 73.4 °F 89% 29.86 in 6.2 mi SW 3.5 mph - N/A Rain Light Rain Showers
5:00 PM 77.0 °F 73.4 °F 89% 29.86 in 6.2 mi Variable 2.3 mph - N/A   Mostly Cloudy
6:00 PM 77.0 °F 73.4 °F 89% 29.86 in 6.2 mi NNW 3.5 mph - N/A Rain Light Rain Showers
7:00 PM 77.0 °F 73.4 °F 89% 29.86 in 6.2 mi Variable 1.2 mph - N/A Rain Light Rain Showers
8:00 PM 77.0 °F 73.4 °F 89% 29.86 in 6.2 mi Variable 2.3 mph - N/A   Mostly Cloudy